[[{"header":{"parameterUnit":"m.s-1","parameterCategory":1,"la1":30.2991,"la2":30.254,"lo1":-89.0895,"lo2":-89.0444,"dy":0.0017,"dx":0.0017,"nx":28,"ny":28,"refTime":"2023-10-20T03:00:00:Z","depth":0,"parameterNumber":2,"parameterNumberName":"U-component_of_WINDS"},"data":[0,0,0,0,0,0,0,0,0,0,0,0,0,0,0,0,0,0,0,0,0,0,0,0,0,0,0,0,0,0,0,0,0,0,0,0,0,0,0,0,0,0,0,0,0,0,0,0,0,0,0,0,0,0,0,0,0,0,4.8224,4.8225,0,4.8305,4.8306,4.8307,4.8184,4.818,4.8176,4.8172,4.8259,4.8266,4.8272,0,0,0,0,0,0,0,0,0,0,0,0,0,4.7968,4.7973,4.8224,4.8225,4.8226,4.8305,4.8306,4.8307,4.8185,4.818,4.8175,4.817,4.8257,4.8265,4.8272,0,0,0,0,0,0,0,0,0,0,0,0,0,4.8067,4.7975,4.8224,4.8174,4.8171,4.8305,4.8306,4.8308,4.8186,4.818,4.8173,4.8167,4.8255,4.8264,4.8273,4.8461,0,0,4.8303,4.8307,0,0,0,0,0,0,0,0,4.8062,4.8077,4.8181,4.8178,4.8174,4.8228,4.8248,4.8359,4.8188,4.818,4.8171,4.8164,4.8254,4.8264,4.8293,4.8465,4.8469,4.8303,4.8309,4.8313,4.8316,0,0,0,0,0,0,0,4.8055,4.8073,4.8256,4.8182,4.8178,4.815,4.8157,4.8269,4.8253,4.8181,4.8172,4.8183,4.8251,4.8284,4.8294,4.847,4.8303,4.8312,4.8317,4.8321,4.8803,4.881,0,0,0,0,0,0,4.8053,4.8068,4.8253,4.8258,4.8101,4.816,4.8167,4.8217,4.8251,4.825,4.8188,4.8177,4.8271,4.8283,4.8297,4.852,4.8313,4.8322,4.8328,4.8796,4.8804,4.8812,0,0,0,0,0,0,4.8048,4.8071,4.825,4.8161,4.8181,4.8171,4.8228,4.8222,4.8255,4.8257,4.8254,4.8224,4.8267,4.8284,4.8421,4.8521,4.8326,4.8335,4.8788,4.8799,4.8808,4.8968,0,0,0,0,0,0,4.8042,4.807,4.814,4.8163,4.8187,4.8372,4.8234,4.8228,4.8271,4.8257,4.829,4.8289,4.8263,4.8408,4.8431,4.8531,4.8342,4.8779,4.8792,4.8805,4.8953,4.8982,4.9007,0,0,0,0,0,4.8033,4.8182,4.8144,4.8167,4.8273,4.8378,4.8392,4.8357,4.8279,4.8351,4.8352,4.8288,4.8507,4.8423,4.8448,4.8552,4.8772,4.8788,4.8804,4.8941,4.8977,4.9007,0,0,0,0,0,0,4.8172,4.8184,4.8142,4.8303,4.8341,4.8357,4.8445,4.8395,4.8456,4.8441,4.8396,4.8405,4.8553,4.8566,4.8473,4.8737,4.8627,4.8648,4.8723,4.8756,4.8783,4.8777,4.835,0,0,0,0,0,4.8221,4.8303,4.831,4.8452,4.8473,4.8457,4.8501,4.8471,4.8508,4.8524,4.8535,4.8576,4.8653,4.8705,4.8777,4.8955,4.8961,4.9039,4.9066,4.9088,4.9108,4.9205,4.924,4.8865,4.8864,4.8864,0,0,4.8324,4.8341,4.8396,4.848,4.8505,4.8594,4.847,4.8568,4.8634,4.8539,4.867,4.868,4.8722,4.8882,4.8952,4.8897,4.9213,4.9108,4.9126,4.9134,4.9225,4.926,4.9292,4.8875,4.8873,4.8872,0,0,4.8556,4.8577,4.8697,4.8725,4.8765,4.8754,4.8783,4.8808,4.8811,4.8941,4.8872,4.8951,4.9085,4.9118,4.9153,4.9401,4.9345,4.9425,4.9566,4.9661,4.9691,4.9717,4.9807,4.9839,4.9445,4.9445,4.9445,0,4.8679,4.8808,4.8766,4.887,4.891,4.8827,4.895,4.898,4.9042,4.9073,4.901,4.9178,4.92,4.9367,4.9427,4.9458,4.9491,4.9421,4.969,4.9715,4.9739,4.9824,4.9858,4.9455,4.9454,4.9453,4.9452,0,4.8958,4.9049,4.9142,4.9203,4.9253,4.9366,4.9344,4.9401,4.9367,4.9363,4.9498,4.9522,4.9598,4.9635,4.9603,4.9799,4.9764,4.9696,4.9585,4.9785,4.9865,4.9897,4.9468,4.9465,4.9462,4.946,0,0,4.9279,4.9317,4.9352,4.9379,4.9418,4.9488,4.9599,4.9672,4.9722,4.9768,4.9861,4.9977,4.9916,4.9955,4.9927,5.001,5.0207,4.9933,4.9933,4.9984,5.0426,5.0477,5.0515,5.017,5.0176,5.0181,5.0423,0,4.9512,4.97,4.9667,4.9852,4.9936,4.986,4.9956,4.9992,4.9992,5.0065,5.0064,5.0148,5.006,5.0083,5.0162,5.0166,5.0295,5.0148,5.0258,5.0262,5.025,5.0556,5.061,5.0837,5.0453,5.0458,5.0462,0,4.9808,4.9864,5.0057,5.0084,5.0118,5.0206,5.0271,5.0341,5.0381,5.0375,5.042,5.0377,5.0489,5.0376,5.0531,5.0432,5.0475,5.0484,5.0492,5.0501,5.0375,5.0575,5.0908,5.0943,5.051,5.0507,5.0503,0,5.0024,5.0149,5.0281,5.0307,5.0341,5.0405,5.0422,5.0455,5.0502,5.056,5.059,5.0661,5.07,5.0757,5.0735,5.0654,5.0896,5.078,5.0895,5.0896,5.095,5.0947,5.1296,5.0977,5.0976,5.0976,5.0975,0,5.0288,5.0409,5.0379,5.046,5.0594,5.0556,5.0691,5.07,5.073,5.0814,5.0752,5.0832,5.0797,5.0875,5.0859,5.0991,5.1009,5.1009,5.1003,5.1015,5.1015,5.1043,5.1027,5.0985,5.0983,5.0981,5.0979,0,5.0552,5.0537,5.0675,5.0697,5.0706,5.0804,5.0823,5.0901,5.0896,5.1002,5.1025,5.1019,5.1108,5.1091,5.1189,5.1178,5.1344,5.1319,5.1331,5.1325,5.1442,5.1432,5.1822,5.1872,5.1519,5.1523,5.1526,0,5.0722,5.0813,5.0845,5.0896,5.0918,5.1001,5.1048,5.1015,5.1067,5.1121,5.1192,5.1275,5.134,5.1486,5.1492,5.1567,5.1543,5.1675,5.1554,5.1564,5.1547,5.1542,5.1552,5.1699,5.1703,5.1706,5.1709,0,5.1025,5.1013,5.1082,5.1151,5.121,5.1262,5.1309,5.1354,5.1326,5.1388,5.1478,5.1528,5.1628,5.1713,5.1783,5.1803,5.1753,5.1747,5.1778,5.1791,5.1795,5.1796,5.1397,5.1738,5.1735,5.1733,5.1732,5.173,5.1247,5.1326,5.1361,5.1442,5.1474,5.1519,5.1593,5.1598,5.1672,5.175,5.1727,5.183,5.1869,5.1959,5.1987,5.2068,5.2019,5.2064,5.2075,5.2087,5.2102,5.1782,5.2081,5.208,5.2079,5.2078,5.2078,0,5.1548,5.1567,5.1642,5.1709,5.1774,5.1719,5.1769,5.1827,5.1917,5.1958,5.2023,5.2128,5.2209,5.2222,5.23,5.2363,5.2342,5.2384,5.238,5.2386,5.214,5.2106,5.24,5.24,5.24,5.24,5.24,5.24,5.1712,5.1842,5.1835,5.1982,5.2,5.2099,5.2133,5.2176,5.2208,5.2327,5.2394,5.2401,5.2431,5.2511,5.2585,5.2587,5.2619,5.2671,5.2664,5.2435,5.2403,5.2372,5.234,5.2678,5.2679,5.2903,5.2905,5.2906]},{"header":{"parameterUnit":"m.s-1","parameterCategory":1,"la1":30.2991,"la2":30.254,"lo1":-89.0895,"lo2":-89.0444,"dy":0.0017,"dx":0.0017,"nx":28,"ny":28,"refTime":"2023-10-20T03:00:00:Z","depth":0,"parameterNumber":3,"parameterNumberName":"V-component_of_WINDS"},"data":[0,0,0,0,0,0,0,0,0,0,0,0,0,0,0,0,0,0,0,0,0,0,0,0,0,0,0,0,0,0,0,0,0,0,0,0,0,0,0,0,0,0,0,0,0,0,0,0,0,0,0,0,0,0,0,0,0,0,1.5529,1.5529,0,1.5601,1.5602,1.5603,1.5595,1.5593,1.5592,1.5591,1.5666,1.5668,1.5672,0,0,0,0,0,0,0,0,0,0,0,0,0,1.5382,1.5385,1.5529,1.553,1.553,1.5601,1.5602,1.5603,1.5595,1.5593,1.5592,1.5591,1.5665,1.5668,1.5672,0,0,0,0,0,0,0,0,0,0,0,0,0,1.5449,1.5386,1.5528,1.5535,1.5536,1.5601,1.5602,1.5603,1.5595,1.5593,1.5592,1.559,1.5663,1.5668,1.5672,1.5735,0,0,1.5686,1.5688,0,0,0,0,0,0,0,0,1.5446,1.5455,1.5533,1.5534,1.5536,1.5587,1.5578,1.5648,1.5595,1.5573,1.5591,1.5589,1.5641,1.5647,1.5665,1.5739,1.5742,1.5687,1.569,1.5691,1.5693,0,0,0,0,0,0,0,1.5441,1.5452,1.5557,1.5534,1.5536,1.5534,1.5541,1.5591,1.5616,1.5575,1.5574,1.5583,1.5641,1.566,1.5666,1.5743,1.5687,1.5691,1.5694,1.5695,1.5872,1.5874,0,0,0,0,0,0,1.5435,1.5448,1.5555,1.5559,1.5486,1.5538,1.5546,1.5572,1.5615,1.562,1.5584,1.5582,1.5653,1.5661,1.5669,1.5745,1.5691,1.5696,1.5698,1.587,1.5873,1.5875,0,0,0,0,0,0,1.5432,1.5444,1.5552,1.5504,1.5517,1.5542,1.5572,1.5575,1.5594,1.5622,1.5627,1.5599,1.5652,1.5662,1.5719,1.5748,1.5698,1.5702,1.5868,1.5871,1.5874,1.5899,0,0,0,0,0,0,1.5427,1.5443,1.5468,1.5504,1.552,1.5601,1.5573,1.5577,1.5602,1.56,1.5637,1.5642,1.5652,1.5712,1.5723,1.5753,1.5706,1.5865,1.5869,1.5873,1.5896,1.5902,1.5908,0,0,0,0,0,1.5422,1.5472,1.5469,1.5482,1.5551,1.5603,1.5612,1.5622,1.5604,1.5629,1.5647,1.5641,1.5743,1.5718,1.5731,1.5762,1.5864,1.5868,1.5872,1.5893,1.5901,1.5908,0,0,0,0,0,0,1.5439,1.5477,1.5474,1.5537,1.5567,1.5601,1.5633,1.563,1.5665,1.5662,1.5673,1.5681,1.5738,1.5756,1.5727,1.5825,1.5801,1.5808,1.5812,1.582,1.5826,1.5821,1.5709,0,0,0,0,0,1.545,1.5489,1.552,1.5573,1.5588,1.5608,1.5631,1.5636,1.5667,1.5679,1.5702,1.5732,1.5771,1.5796,1.5833,1.5898,1.5906,1.5926,1.5932,1.5937,1.5943,1.5978,1.5987,1.5889,1.5889,1.5889,0,0,1.5473,1.5499,1.5523,1.5577,1.5601,1.5641,1.5619,1.5662,1.5692,1.5686,1.5741,1.5758,1.5792,1.5853,1.5881,1.5869,1.5972,1.5942,1.5946,1.595,1.5983,1.5993,1.6001,1.5892,1.5891,1.5891,0,0,1.5536,1.556,1.5606,1.563,1.5665,1.5678,1.5689,1.5724,1.5735,1.579,1.5786,1.5822,1.5888,1.5913,1.5934,1.6005,1.6,1.6017,1.6049,1.6083,1.6091,1.6098,1.6123,1.6132,1.6022,1.6023,1.6023,0,1.5561,1.5621,1.563,1.5674,1.5698,1.5694,1.5741,1.5763,1.5809,1.5826,1.5812,1.5895,1.5918,1.5984,1.6001,1.6018,1.6031,1.6013,1.6089,1.6096,1.6103,1.6127,1.6136,1.6024,1.6024,1.6024,1.6024,0,1.565,1.5692,1.5725,1.5769,1.5796,1.5841,1.5857,1.5883,1.5885,1.5899,1.5955,1.5982,1.6024,1.604,1.6043,1.6106,1.6098,1.6087,1.6062,1.6114,1.6137,1.6146,1.6027,1.6026,1.6026,1.6025,0,0,1.5727,1.5774,1.5787,1.5806,1.5845,1.5877,1.5922,1.5963,1.5985,1.6017,1.6054,1.611,1.6099,1.6123,1.6129,1.6158,1.6212,1.6143,1.6144,1.6155,1.6284,1.6292,1.6303,1.6209,1.6211,1.6212,1.6281,0,1.5794,1.5873,1.5882,1.5952,1.599,1.5987,1.6025,1.6053,1.6067,1.6101,1.6116,1.6156,1.6139,1.6153,1.6182,1.62,1.6238,1.6195,1.6244,1.6246,1.6236,1.6315,1.6325,1.6388,1.629,1.6291,1.6292,0,1.5883,1.5916,1.5991,1.6023,1.604,1.6074,1.6112,1.6145,1.6176,1.6184,1.621,1.6211,1.6257,1.623,1.6293,1.6263,1.6283,1.6295,1.6297,1.6303,1.6273,1.6323,1.6408,1.6418,1.6307,1.6305,1.6304,0,1.5931,1.5995,1.6048,1.6065,1.6104,1.6128,1.6146,1.6175,1.6199,1.6232,1.6247,1.6285,1.6306,1.6335,1.6346,1.6326,1.6408,1.6382,1.6416,1.6416,1.6434,1.6433,1.6525,1.6447,1.6447,1.6446,1.6446,0,1.6006,1.6051,1.607,1.6103,1.6153,1.6163,1.6212,1.6229,1.6254,1.6289,1.6288,1.6321,1.6333,1.6368,1.6377,1.6427,1.6437,1.6444,1.6446,1.6445,1.6444,1.6459,1.6455,1.6449,1.6448,1.6448,1.6447,0,1.6069,1.6084,1.6141,1.6173,1.6182,1.6218,1.6245,1.6276,1.6289,1.6333,1.6344,1.6365,1.6405,1.6419,1.6469,1.6474,1.6533,1.6531,1.6523,1.6523,1.6556,1.6553,1.6661,1.6675,1.6588,1.6588,1.6589,0,1.6116,1.6151,1.6186,1.621,1.6228,1.6266,1.629,1.63,1.6325,1.6363,1.6389,1.6429,1.6462,1.6528,1.6547,1.6584,1.6583,1.6618,1.6589,1.6586,1.6584,1.6582,1.6585,1.6624,1.6625,1.6626,1.6626,0,1.6197,1.6202,1.6238,1.6275,1.6304,1.6334,1.6363,1.6383,1.6397,1.6425,1.6467,1.6492,1.6542,1.6582,1.662,1.6638,1.6635,1.6635,1.6645,1.6644,1.6638,1.6642,1.6538,1.6633,1.6632,1.6632,1.6632,1.6631,1.6254,1.6285,1.6314,1.6353,1.6376,1.6403,1.6434,1.645,1.6485,1.6527,1.653,1.6575,1.6604,1.6655,1.6674,1.6709,1.6699,1.6713,1.6717,1.672,1.6723,1.6632,1.6716,1.6716,1.6715,1.6715,1.6715,0,1.6335,1.6354,1.639,1.643,1.6461,1.6455,1.6486,1.6512,1.6552,1.6579,1.6611,1.6659,1.6697,1.6719,1.6757,1.6781,1.678,1.679,1.6789,1.6793,1.673,1.6717,1.679,1.679,1.679,1.679,1.679,1.679,1.6381,1.6433,1.6442,1.6504,1.6522,1.6566,1.6585,1.6609,1.6631,1.6684,1.6716,1.673,1.6755,1.6795,1.6829,1.6835,1.6849,1.6861,1.6865,1.6805,1.6798,1.679,1.6779,1.6863,1.6864,1.6925,1.6926,1.6926]}]]